Location: Krasnoyarskiy Pitomnik
(51.1333°N, 71.6167°E)
Time: 09:47:00
(UTC+00:00)

Altair - Pass Details

Date: 15 April 2024
Orbit: 1501 x 1682 km, 47.2° (Epoch: 17 May)

Event Time Altitude Azimuth Distance (km) Brightness Sun altitude
Rises 15:36:48 0° 226° (SW) 4,898 10.3 -13.0°
Reaches altitude 10° 15:40:06 10° 222° (SW) 3,895 9.7 -13.4°
Maximum altitude 15:49:28 49° 151° (SSE) 2,007 7.7 -14.6°
Drops below altitude 10° 15:58:32 10° 81° (E) 3,773 9.2 -15.7°
Sets 16:01:40 0° 76° (ENE) 4,735 9.7 -16.1°
